[[{"header":{"parameterUnit":"m.s-1","parameterCategory":1,"la1":30.2991,"la2":30.254,"lo1":-89.0895,"lo2":-89.0444,"dy":0.0017,"dx":0.0017,"nx":28,"ny":28,"refTime":"2024-11-27T09:00:00:Z","depth":0,"parameterNumber":2,"parameterNumberName":"U-component_of_WINDS"},"data":[0,0,0,0,0,0,0,0,0,0,0,0,0,0,0,0,0,0,0,0,0,0,0,0,0,0,0,0,0,0,0,0,0,0,0,0,0,0,0,0,0,0,0,0,0,0,0,0,0,0,0,0,0,0,0,0,0,0,3.1851,3.1854,0,3.2077,3.208,3.2082,3.2176,3.2175,3.2175,3.2174,3.2414,3.2421,3.2427,0,0,0,0,0,0,0,0,0,0,0,0,0,3.151,3.1516,3.1851,3.1854,3.1857,3.2077,3.208,3.2083,3.2176,3.2175,3.2175,3.2174,3.2412,3.242,3.2428,0,0,0,0,0,0,0,0,0,0,0,0,0,3.169,3.1518,3.185,3.1929,3.1939,3.2076,3.208,3.2084,3.2176,3.2175,3.2174,3.2174,3.2409,3.2419,3.2429,3.2507,0,0,3.246,3.2465,0,0,0,0,0,0,0,0,3.1679,3.1702,3.1915,3.1924,3.1935,3.2097,3.2048,3.2226,3.2176,3.2086,3.2174,3.2173,3.231,3.2328,3.2372,3.2519,3.2529,3.2461,3.2468,3.2472,3.2475,0,0,0,0,0,0,0,3.1667,3.1693,3.1941,3.1918,3.193,3.1957,3.1982,3.2082,3.22,3.2094,3.2101,3.2126,3.2315,3.2362,3.2379,3.2532,3.2461,3.247,3.2476,3.2481,3.2761,3.2762,0,0,0,0,0,0,3.164,3.1682,3.1934,3.1947,3.1802,3.1964,3.1991,3.2046,3.2199,3.2221,3.2127,3.213,3.2345,3.2367,3.2387,3.2493,3.2472,3.2482,3.2487,3.2759,3.2761,3.2762,0,0,0,0,0,0,3.1632,3.1662,3.1924,3.1817,3.1852,3.197,3.2031,3.2051,3.2098,3.2223,3.2246,3.2152,3.2345,3.2373,3.2478,3.2502,3.2486,3.2495,3.2758,3.276,3.2762,3.2701,0,0,0,0,0,0,3.1622,3.1658,3.1686,3.1817,3.1858,3.2007,3.2033,3.2056,3.2115,3.2121,3.2254,3.2275,3.2347,3.2462,3.2488,3.2516,3.2503,3.2756,3.2759,3.2761,3.2701,3.27,3.2699,0,0,0,0,0,3.161,3.1661,3.1687,3.1717,3.1894,3.2008,3.2032,3.2111,3.2116,3.2147,3.2229,3.2271,3.2495,3.2472,3.2502,3.2533,3.2755,3.2758,3.2761,3.2701,3.27,3.2699,0,0,0,0,0,0,3.1531,3.1679,3.171,3.1804,3.1892,3.2023,3.2065,3.2107,3.2198,3.22,3.2298,3.2327,3.2424,3.249,3.2461,3.262,3.2629,3.2638,3.2573,3.2573,3.2573,3.2555,3.2512,0,0,0,0,0,3.1525,3.1601,3.1728,3.1799,3.1841,3.1945,3.1998,3.2051,3.2148,3.2187,3.2276,3.2371,3.2464,3.2522,3.2614,3.2712,3.2744,3.2749,3.2748,3.2747,3.2753,3.2815,3.2819,3.2772,3.2772,3.2772,0,0,3.1512,3.1602,3.1645,3.1785,3.186,3.1941,3.1976,3.2059,3.2122,3.2201,3.2304,3.2374,3.2487,3.2589,3.2638,3.2646,3.2774,3.275,3.2748,3.2756,3.2818,3.2822,3.2826,3.2774,3.2773,3.2773,0,0,3.1531,3.1605,3.1674,3.1749,3.1862,3.1932,3.1948,3.2074,3.2123,3.2228,3.229,3.2368,3.2524,3.2603,3.2664,3.2718,3.2762,3.2746,3.2742,3.28,3.2804,3.2808,3.283,3.2836,3.2752,3.2752,3.2752,0,3.1501,3.1622,3.1705,3.1786,3.1847,3.1922,3.1995,3.2065,3.2203,3.2246,3.2252,3.2452,3.2534,3.2657,3.2671,3.2717,3.2742,3.273,3.2796,3.2801,3.2806,3.2828,3.2836,3.2749,3.275,3.275,3.275,0,3.1583,3.1666,3.1709,3.1839,3.1906,3.1983,3.2081,3.2139,3.2189,3.2259,3.2369,3.247,3.2585,3.2619,3.2668,3.2751,3.2753,3.2776,3.2787,3.2806,3.2829,3.2838,3.2746,3.2747,3.2747,3.2748,0,0,3.1555,3.1732,3.1747,3.1808,3.1941,3.2009,3.2092,3.2203,3.2253,3.2347,3.2422,3.2554,3.2578,3.2647,3.2707,3.2758,3.2799,3.2776,3.2781,3.2779,3.2901,3.2883,3.2891,3.2829,3.2831,3.2832,3.2893,0,3.1593,3.174,3.1819,3.1934,3.2015,3.209,3.2163,3.2254,3.2323,3.2405,3.2484,3.2577,3.26,3.2643,3.2696,3.2782,3.2825,3.2779,3.2902,3.2906,3.2872,3.2903,3.2883,3.2935,3.2902,3.2903,3.2905,0,3.1655,3.1747,3.187,3.1997,3.2034,3.2097,3.2208,3.2284,3.2392,3.244,3.2518,3.2578,3.2673,3.2677,3.2812,3.2779,3.2835,3.2885,3.289,3.2905,3.2906,3.292,3.2953,3.2961,3.2919,3.2918,3.2917,0,3.1625,3.178,3.1875,3.1926,3.2075,3.2119,3.2184,3.2291,3.2354,3.2453,3.2496,3.2604,3.2664,3.2749,3.2839,3.2833,3.2966,3.2977,3.3011,3.3009,3.3036,3.3033,3.3079,3.307,3.307,3.3069,3.3069,0,3.1659,3.1732,3.1864,3.1922,3.2008,3.2101,3.2185,3.2256,3.2352,3.2429,3.2501,3.2572,3.2685,3.2773,3.2844,3.2947,3.2973,3.3017,3.3035,3.3011,3.3006,3.3049,3.3048,3.3072,3.3071,3.3071,3.307,0,3.1639,3.173,3.1839,3.1972,3.2008,3.2066,3.2183,3.2245,3.2319,3.2416,3.2444,3.2562,3.2669,3.2767,3.2909,3.2958,3.3063,3.3085,3.3025,3.3035,3.3065,3.3061,3.3141,3.3158,3.3136,3.3136,3.3136,0,3.1654,3.1712,3.1853,3.1909,3.1972,3.2061,3.2126,3.2222,3.2287,3.2417,3.2465,3.2576,3.267,3.2839,3.294,3.305,3.3077,3.3098,3.3094,3.3069,3.308,3.3076,3.3084,3.3096,3.3096,3.3096,3.3096,0,3.1673,3.1717,3.1806,3.1913,3.1988,3.2078,3.2169,3.2212,3.2326,3.2397,3.2506,3.2579,3.2726,3.2837,3.296,3.3033,3.3085,3.3096,3.3111,3.3087,3.305,3.3073,3.3023,3.3094,3.3094,3.3094,3.3094,3.3094,3.1674,3.173,3.1838,3.1937,3.2017,3.2102,3.2168,3.2251,3.2342,3.2467,3.2519,3.2631,3.2744,3.2914,3.2986,3.3078,3.3089,3.3108,3.3114,3.3118,3.3114,3.3035,3.3101,3.3101,3.3101,3.3101,3.3101,0,3.1698,3.1772,3.1862,3.1988,3.2068,3.2108,3.2214,3.2278,3.2374,3.2473,3.2565,3.2694,3.2804,3.2914,3.3031,3.3084,3.3112,3.3112,3.3109,3.3126,3.3097,3.3073,3.3088,3.3088,3.3088,3.3088,3.3088,3.3088,3.172,3.1818,3.1875,3.2016,3.2092,3.2199,3.2257,3.2338,3.2418,3.2556,3.2647,3.2718,3.2824,3.295,3.3055,3.3085,3.3126,3.312,3.3157,3.3127,3.3128,3.3128,3.3106,3.3128,3.3128,3.3179,3.318,3.318]},{"header":{"parameterUnit":"m.s-1","parameterCategory":1,"la1":30.2991,"la2":30.254,"lo1":-89.0895,"lo2":-89.0444,"dy":0.0017,"dx":0.0017,"nx":28,"ny":28,"refTime":"2024-11-27T09:00:00:Z","depth":0,"parameterNumber":3,"parameterNumberName":"V-component_of_WINDS"},"data":[0,0,0,0,0,0,0,0,0,0,0,0,0,0,0,0,0,0,0,0,0,0,0,0,0,0,0,0,0,0,0,0,0,0,0,0,0,0,0,0,0,0,0,0,0,0,0,0,0,0,0,0,0,0,0,0,0,0,1.4692,1.4695,0,1.495,1.4953,1.4956,1.5022,1.502,1.5019,1.5017,1.5288,1.5297,1.5305,0,0,0,0,0,0,0,0,0,0,0,0,0,1.4261,1.4268,1.4692,1.4695,1.4698,1.495,1.4954,1.4957,1.5022,1.502,1.5018,1.5017,1.5285,1.5296,1.5306,0,0,0,0,0,0,0,0,0,0,0,0,0,1.4477,1.4271,1.4691,1.4761,1.477,1.4949,1.4954,1.4958,1.5023,1.502,1.5018,1.5016,1.5282,1.5295,1.5308,1.5438,0,0,1.5348,1.5353,0,0,0,0,0,0,0,0,1.4464,1.4492,1.4747,1.4756,1.4767,1.4951,1.4901,1.5119,1.5023,1.4927,1.5017,1.5014,1.5178,1.52,1.5254,1.545,1.5462,1.5349,1.5357,1.5362,1.5366,0,0,0,0,0,0,0,1.4449,1.4482,1.4794,1.4751,1.4763,1.4782,1.4809,1.4943,1.5064,1.4935,1.4941,1.497,1.5183,1.5241,1.5261,1.5466,1.5348,1.536,1.5368,1.5373,1.5785,1.5788,0,0,0,0,0,0,1.4421,1.4469,1.4786,1.4802,1.4606,1.4791,1.4822,1.4895,1.5062,1.5085,1.4972,1.4972,1.522,1.5246,1.5271,1.5436,1.5362,1.5375,1.5382,1.5782,1.5786,1.5789,0,0,0,0,0,0,1.4412,1.4449,1.4776,1.4637,1.468,1.4801,1.4882,1.4901,1.4959,1.509,1.5112,1.5008,1.5219,1.5252,1.5396,1.5447,1.538,1.5392,1.5779,1.5783,1.5788,1.5767,0,0,0,0,0,0,1.4399,1.4445,1.4494,1.4637,1.4687,1.4894,1.4885,1.4908,1.4981,1.4984,1.513,1.5152,1.522,1.5376,1.5409,1.5463,1.5403,1.5775,1.5781,1.5786,1.5764,1.577,1.5776,0,0,0,0,0,1.4383,1.4479,1.4496,1.4534,1.4751,1.4897,1.4926,1.5,1.4984,1.5036,1.5121,1.5148,1.5435,1.539,1.5428,1.5487,1.5772,1.5779,1.5786,1.5761,1.5769,1.5776,0,0,0,0,0,0,1.434,1.4499,1.452,1.4664,1.4766,1.4908,1.4975,1.5006,1.5116,1.5114,1.5203,1.5236,1.5374,1.5445,1.5392,1.5623,1.5604,1.5619,1.5572,1.5581,1.5587,1.5568,1.5413,0,0,0,0,0,1.4347,1.4451,1.4584,1.4699,1.4749,1.4853,1.492,1.4968,1.5078,1.5122,1.5217,1.5325,1.544,1.5514,1.5627,1.5774,1.5808,1.5833,1.5839,1.5843,1.5856,1.5941,1.5955,1.5812,1.5812,1.5812,0,0,1.4363,1.4462,1.4523,1.4693,1.4778,1.4885,1.4889,1.5002,1.5084,1.514,1.5282,1.5355,1.5482,1.5628,1.5697,1.5691,1.5903,1.5852,1.5855,1.5865,1.595,1.5963,1.5975,1.5817,1.5816,1.5815,0,0,1.4447,1.4532,1.4637,1.4722,1.485,1.4919,1.4944,1.5082,1.5132,1.5275,1.532,1.5419,1.5615,1.5704,1.5774,1.5893,1.5923,1.5928,1.596,1.6042,1.6054,1.6064,1.6109,1.6124,1.5939,1.5939,1.5939,0,1.4452,1.4614,1.4688,1.48,1.4874,1.4928,1.5037,1.5117,1.5276,1.5327,1.5317,1.5565,1.5654,1.5823,1.5852,1.5906,1.594,1.5912,1.6045,1.6057,1.6068,1.6112,1.6128,1.5939,1.5939,1.5939,1.5939,0,1.4614,1.4725,1.4796,1.4946,1.5029,1.5138,1.5232,1.5307,1.5348,1.5418,1.5565,1.5673,1.581,1.5853,1.5895,1.6029,1.6021,1.6027,1.601,1.608,1.6123,1.614,1.5939,1.5939,1.5939,1.5939,0,0,1.4679,1.4869,1.4894,1.4964,1.5109,1.5199,1.5312,1.5444,1.5507,1.5615,1.5714,1.5879,1.5886,1.5966,1.6018,1.609,1.618,1.6088,1.6093,1.6103,1.6338,1.6333,1.6351,1.62,1.6204,1.6206,1.6328,0,1.4783,1.4984,1.5055,1.5223,1.5329,1.5382,1.5481,1.5583,1.5652,1.5753,1.5831,1.5947,1.5946,1.5995,1.6068,1.6153,1.6229,1.6145,1.6296,1.63,1.6264,1.6374,1.6369,1.6479,1.6345,1.6348,1.635,0,1.4931,1.504,1.5217,1.5351,1.5398,1.5486,1.5614,1.5709,1.5826,1.5872,1.5961,1.6009,1.6132,1.6106,1.6278,1.622,1.6286,1.6337,1.6343,1.6362,1.633,1.6397,1.6515,1.6532,1.6376,1.6374,1.6372,0,1.4963,1.5154,1.5285,1.5343,1.5502,1.5563,1.5632,1.5747,1.5822,1.5934,1.5985,1.611,1.618,1.6277,1.6358,1.6331,1.6524,1.6504,1.6568,1.6566,1.6608,1.6604,1.674,1.6646,1.6646,1.6645,1.6645,0,1.5073,1.518,1.5302,1.5383,1.5506,1.5587,1.5707,1.578,1.5882,1.598,1.6034,1.6126,1.6226,1.6331,1.6396,1.653,1.6561,1.6603,1.6619,1.66,1.6595,1.6646,1.6641,1.665,1.6649,1.6648,1.6647,0,1.513,1.5215,1.5363,1.5501,1.5538,1.5623,1.5743,1.5825,1.5896,1.602,1.6054,1.6166,1.6293,1.6383,1.6547,1.659,1.6736,1.6751,1.6696,1.6705,1.6764,1.6758,1.6939,1.6968,1.6852,1.6853,1.6854,0,1.5195,1.5278,1.5425,1.5494,1.5563,1.5673,1.575,1.5834,1.5913,1.6053,1.6119,1.6249,1.6358,1.6559,1.6657,1.6783,1.6803,1.6858,1.6823,1.6801,1.6807,1.6802,1.6812,1.6864,1.6864,1.6865,1.6866,0,1.5302,1.5341,1.5448,1.5572,1.5662,1.5764,1.5866,1.592,1.6023,1.6109,1.6238,1.6323,1.649,1.6619,1.6755,1.683,1.6866,1.6875,1.6898,1.6879,1.6845,1.6867,1.6713,1.6872,1.6871,1.6871,1.687,1.687,1.5368,1.5445,1.5561,1.568,1.5766,1.586,1.5945,1.6026,1.6135,1.6277,1.632,1.6455,1.6573,1.6759,1.6835,1.6944,1.6941,1.6972,1.6981,1.6987,1.6988,1.6825,1.6969,1.6969,1.6969,1.6968,1.6968,0,1.548,1.5557,1.5665,1.5807,1.5901,1.5924,1.604,1.6118,1.6235,1.6341,1.6447,1.6597,1.6723,1.6831,1.6963,1.7029,1.705,1.7061,1.7059,1.7076,1.6982,1.6951,1.7043,1.7043,1.7043,1.7043,1.7043,1.7043,1.5549,1.5682,1.5735,1.5912,1.599,1.6121,1.6185,1.6274,1.6359,1.6524,1.6628,1.6697,1.6805,1.6945,1.7063,1.7091,1.7139,1.7147,1.718,1.7091,1.7082,1.7074,1.7045,1.7156,1.7156,1.7265,1.7266,1.7267]}]]